Location: Indian Tree Observatory
(39.4030°N, 104.5929°W)
Time: 18:39:02
(UTC-07:00)

N. Korean satellite - Visible Passes

Search period start: 21 February 2019 00:00
Search period end: 03 March 2019 00:00
Orbit: 456 x 510 km, 97.2° (Epoch: 21 February)

Date Brightness Start Highest point End Pass type
(mag) Time Alt. Az. Time Alt. Az. Time Alt. Az.
21 Feb 10.3 05:07:14 10° E 05:07:55 10° E 05:08:36 10° ESE visible
22 Feb 10.1 18:22:34 10° SW 18:24:52 16° W 18:27:09 10° NW visible
23 Feb 8.0 05:48:50 10° NNE 05:52:05 40° E 05:55:18 10° S visible
24 Feb 9.6 05:24:44 10° NE 05:27:13 19° E 05:29:42 10° SE visible
26 Feb 10.0 18:16:43 10° SW 18:19:15 18° W 18:21:47 10° NW visible
27 Feb 8.5 05:43:19 10° NNE 05:46:27 33° E 05:49:35 10° SSE visible
28 Feb 9.8 05:19:23 10° NE 05:21:34 16° E 05:23:46 10° SE visible
01 Mar 10.8 18:38:16 10° W 18:38:32 10° W 18:38:48 10° W visible
